Tabarka, Tunisia

1:25 AM CET on September 22, 2019 (GMT +0100)
Tabarka

Weather History for DTKA - August, 2019

Change the Weather History Date:

Sunday, August 25, 2019

  Actual Average (WUND) Record (WUND)
Temperature  
Mean Temperature 79 °F -  
Max Temperature 85 °F - - (-1)
Min Temperature 73 °F - - (-1)
Cooling Degree Days 14    
Growing Degree Days 29 (Base 50)    
Moisture  
Dew Point 75 °F    
Average Humidity 87    
Maximum Humidity 100    
Minimum Humidity 60    
Precipitation  
Precipitation 0.00 in - - ()
Sea Level Pressure  
Sea Level Pressure 29.99 in    
Wind  
Wind Speed 4 mph ()    
Max Wind Speed 13 mph    
Max Gust Speed -    
Visibility 6.7 miles    
Events      
Averages and records for this station are not official NWS values.
T = Trace of Precipitation, MM = Missing Value Source: Averaged Metar Reports

Daily Weather History Graph

Daily Weather History Graph

Search for Another Location

Airport or City:

Astronomy

Aug. 25, 2019 Rise Set
Actual Time 5:49 AM CET 7:03 PM CET
Civil Twilight 5:22 AM CET 7:30 PM CET
Nautical Twilight 4:50 AM CET 8:02 PM CET
Astronomical Twilight 4:16 AM CET 8:36 PM CET
Moon 12:16 AM CET (8/25) 3:02 PM CET (8/25)
Length of Visible Light 14h 08m
Length of Day
13h 14m
Waning Crescent, 31% of the Moon is Illuminated
Aug 25
Waning Crescent
Aug 30
New
Sep 6
First Quarter
Sep 14
Full
Sep 22
Last Quarter

Hourly Weather History & Observations

Time (CET) Temp. Heat Index Dew Point Humidity Pressure Visibility Wind Dir Wind Speed Gust Speed Precip Events Conditions
12:00 AM 77.0 °F - 77.0 °F 100% 30.01 in - East 2.3 mph - N/A   Unknown
1:00 AM 76 °F - 76 °F 100% 30.00 in - SSE 1.2 mph - -  
1:00 AM 77.0 °F - 77.0 °F 100% 30.01 in - Variable 1.2 mph - N/A   Unknown
2:00 AM 75.2 °F - 75.2 °F 100% 30.01 in - Calm Calm - N/A   Unknown
4:00 AM 74 °F - 74 °F 100% 29.99 in - East 1.2 mph - -  
4:00 AM 75.2 °F - 75.2 °F 100% 29.98 in - East 2.3 mph - N/A   Unknown
6:00 AM 73.4 °F - 73.4 °F 100% 30.01 in - East 3.5 mph - N/A   Unknown
7:00 AM 75 °F - 75 °F 99% 30.00 in - East 3.5 mph - -  
7:00 AM 75.2 °F - 75.2 °F 100% 30.01 in - East 3.5 mph - N/A   Unknown
8:00 AM 78.8 °F - 75.2 °F 89% 30.01 in 6.2 mi ENE 3.5 mph - N/A   Scattered Clouds
9:00 AM 82.4 °F 88.2 °F 73.4 °F 74% 30.01 in 6.2 mi ENE 3.5 mph - N/A   Scattered Clouds
10:00 AM 85 °F - 73 °F 60% 30.01 in 9 mi North 6.9 mph - -   Partly Cloudy
10:00 AM 84.2 °F 90.9 °F 73.4 °F 70% 30.01 in 6.2 mi North 6.9 mph - N/A   Scattered Clouds
11:00 AM 84.2 °F 90.9 °F 73.4 °F 70% 30.01 in 6.2 mi NNW 9.2 mph - N/A   Scattered Clouds
1:00 PM 84.2 °F 92.3 °F 75.2 °F 74% 29.98 in 6.2 mi North 10.4 mph - N/A   Partly Cloudy
2:00 PM 84.2 °F 92.3 °F 75.2 °F 74% 29.98 in 6.2 mi North 12.7 mph - N/A   Partly Cloudy
4:00 PM 83 °F - 73 °F 64% 29.96 in 9 mi North 11.5 mph - -   Scattered Clouds
4:00 PM 84.2 °F 90.9 °F 73.4 °F 70% 29.95 in 6.2 mi North 11.5 mph - N/A   Partly Cloudy
5:00 PM 82.4 °F 89.5 °F 75.2 °F 79% 29.98 in 6.2 mi North 11.5 mph - N/A   Scattered Clouds
7:00 PM 80 °F - 78 °F 92% 29.96 in 6 mi North 6.9 mph - -   Partly Cloudy
10:00 PM 78 °F - 78 °F 98% 30.00 in - Calm Calm - -  
11:00 PM 77.0 °F - 75.2 °F 94% 29.98 in - East 4.6 mph - N/A   Unknown